Home > Weather > Filderstadt > Past weeks

Flag for Germany Past Weather in Filderstadt, Baden-Württemberg, Germany — Yesterday and Last 2 Weeks

Now
63 °F

Passing clouds.


Feels Like: 63 °F
Forecast: 49 / 70 °F
Wind: 2 mph from North

Location: Stuttgart-Echterdingen

Current Time: Jun 26, 2016 at 10:12:12 AM

Latest Report: Jun 26, 2016 at 9:20 AM


Visibility: N/A

Pressure: 30.12 "Hg

Humidity: 68%

Dew Point: 52 °F

Location of FilderstadtLocation

Past Weather in Filderstadt — Graph

°F

Filderstadt Temperature Yesterday

Maximum temperature yesterday: 77 °F (at 3:50 PM)
Minimum temperature yesterday: 63 °F (at 1:20 AM)
Average temperature yesterday: 67 °F

High & Low Weather Summary for the Past Weeks

 TemperatureHumidityPressure
High91 °F (Jun 23, 4:50 PM)100% (Jun 11, 7:50 PM)30.27 "Hg (Jun 11, 7:50 PM)
Low48 °F (Jun 20, 4:20 AM)30% (Jun 23, 5:20 PM)29.56 "Hg (Jun 14, 12:50 PM)
Average63 °F79%29.94 "Hg
* Reported Jun 11 8:20 AM — Jun 26 8:50 AM, Filderstadt, Weather by CustomWeather, © 2016

Note: Actual official high and low records may vary slightly from our data, if they occured in-between our weather recording intervals... More about our weather records

Advertising

Filderstadt Weather History for the Previous 24 Hours

Scroll right to see more
 ConditionsComfort  
Time TempWeatherWind HumidityBarometerVisibility
8:50 AM
Sun, Jun 26
63 °FPassing clouds.3 mph68%30.12 "HgN/A
8:20 AM61 °FPassing clouds.1 mph72%30.12 "HgN/A
7:50 AM59 °FPassing clouds.2 mph77%30.09 "HgN/A
7:20 AM57 °FPassing clouds.3 mph82%30.12 "HgN/A
6:50 AM55 °FPassing clouds.5 mph88%30.12 "HgN/A
6:20 AM55 °FPassing clouds.2 mph88%30.09 "HgN/A
5:50 AM54 °FPassing clouds.3 mph94%30.09 "HgN/A
5:20 AM54 °FPassing clouds.3 mph88%30.09 "HgN/A
4:50 AM55 °FPassing clouds.3 mph94%30.09 "HgN/A
4:20 AM55 °FPassing clouds.3 mph88%30.09 "HgN/A
3:50 AM55 °FPassing clouds.2 mph94%30.09 "HgN/A
3:20 AM57 °FPassing clouds.6 mph94%30.07 "HgN/A
2:50 AM59 °FPassing clouds.7 mph88%30.07 "HgN/A
2:20 AM59 °FPartly cloudy.5 mph88%30.07 "HgN/A
1:50 AM59 °FPartly cloudy.6 mph88%30.07 "HgN/A
1:20 AM61 °FPartly cloudy.6 mph83%30.09 "HgN/A
12:50 AM61 °FPassing clouds.7 mph88%30.09 "HgN/A
12:20 AM63 °FPassing clouds.6 mph83%30.09 "HgN/A
11:50 PM
Sat, Jun 25
63 °FPassing clouds.6 mph83%30.09 "HgN/A
11:20 PM63 °FPassing clouds.6 mph83%30.07 "HgN/A
10:50 PM63 °FPassing clouds.7 mph83%30.07 "HgN/A
10:20 PM63 °FBroken clouds.7 mph83%30.07 "HgN/A
9:50 PM63 °FScattered clouds.9 mph88%30.04 "HgN/A
9:20 PM64 °FScattered clouds.9 mph78%30.04 "HgN/A
8:50 PM66 °FBroken clouds.13 mph73%30.01 "HgN/A
8:20 PM66 °FBroken clouds.10 mph73%30.01 "HgN/A
7:50 PM66 °FBroken clouds.15 mph73%30.01 "HgN/A
7:20 PM66 °FBroken clouds.12 mph78%30.01 "HgN/A
6:50 PM66 °FBroken clouds.15 mph78%29.98 "HgN/A
6:20 PM68 °FPartly sunny.12 mph73%29.98 "HgN/A
5:50 PM66 °FSprinkles. Broken clouds.8 mph83%29.98 "HgN/A
5:20 PM66 °FThundershowers. Partly sunny.17 mph83%29.95 "HgN/A
4:50 PM72 °FScattered showers. Scattered clouds.24 mph69%29.92 "HgN/A
4:20 PM77 °FScattered clouds.5 mph61%29.92 "HgN/A
3:50 PM77 °FBroken clouds.5 mph65%29.92 "HgN/A
3:20 PM75 °FScattered clouds.8 mph74%29.92 "HgN/A
2:50 PM73 °FThundershowers. Partly sunny.8 mph74%29.92 "HgN/A
2:20 PM75 °FScattered clouds.3 mph65%29.92 "HgN/A
1:50 PM73 °FBroken clouds.7 mph78%29.92 "HgN/A
1:20 PM73 °FBroken clouds.6 mph78%29.95 "HgN/A
12:50 PM72 °FLight rain. Partly sunny.3 mph83%29.95 "HgN/A
12:20 PM72 °FBroken clouds.2 mph78%29.95 "HgN/A
11:50 AM72 °FBroken clouds.5 mph78%29.95 "HgN/A
11:20 AM70 °FBroken clouds.3 mph83%29.95 "HgN/A
10:50 AM70 °FBroken clouds.2 mph83%29.98 "HgN/A
10:20 AM70 °FBroken clouds.5 mph83%29.98 "HgN/A
Weather by CustomWeather, © 2016

See weather overviewHow to use our weather pages